Printer-friendly version

IAU Minor Planet Center

Minor Planet Center

MPEC 2005-P36 : COMET C/2005 N1 (JUELS-HOLVORCEM)

The following Minor Planet Electronic Circular may be linked-to from your own Web pages, but must not otherwise be redistributed electronically.


Read MPEC 2005-P35 Read MPEC 2005-P37


M.P.E.C. 2005-P36                                Issued 2005 Aug. 8, 14:33 UT

     The Minor Planet Electronic Circulars contain information on unusual
         minor planets and routine data on comets.  They are published
   on behalf of Commission 20 of the International Astronomical Union by the
          Minor Planet Center, Smithsonian Astrophysical Observatory,
                          Cambridge, MA 02138, U.S.A.

                  Supported in part by the Brinson Foundation
             Prepared using the Tamkin Foundation Computer Network

                              MPC@CFA.HARVARD.EDU
          URL http://cfa-www.harvard.edu/iau/mpc.html  ISSN 1523-6714

                       COMET C/2005 N1 (JUELS-HOLVORCEM)

Observations:
    CK05N010  C2005 08 05.74270 06 41 34.77 +52 21 13.8                 EP036D83
    CK05N010  C2005 08 05.74665 06 41 36.73 +52 21 17.3                 EP036D83
    CK05N010  C2005 08 05.74850 06 41 37.56 +52 21 18.0                 EP036D83
    CK05N010  C2005 08 05.75223 06 41 39.45 +52 21 20.3          13.5 T EP036D83
    CK05N010  C2005 08 06.06574 06 44 12.13 +52 23 58.0          14.6 N EP036232
    CK05N010  C2005 08 06.06774 06 44 13.08 +52 23 58.6          14.5 N EP036232
    CK05N010  C2005 08 06.06840 06 44 13.33 +52 23 59.1          14.5 N EP036232
    CK05N010  C2005 08 07.12685 06 52 50.75 +52 31 28.8                 EP036J95
    CK05N010  C2005 08 07.12892 06 52 51.79 +52 31 29.6                 EP036J95
    CK05N010  C2005 08 07.13143 06 52 53.01 +52 31 30.4          14.6 N EP036J95

Observer details:
232 Masquefa Observatory.  Observer E. Reina.  0.25-m f/3.3 Schmidt-Cassegrain
    + CCD.
D83 Miwa.  Observer Y. Ohshima.  0.25-m f/5 reflector + CCD.
J95 Great Shefford.  Observer P. Birtwhistle.  0.40-m f/6.0 Schmidt-Cassegrain
    + CCD.

Orbital elements:
    C/2005 N1 (Juels-Holvorcem)
T 2005 Aug. 22.0167 TT                                  MPC
q   1.125762             (2000.0)            P               Q
                   Peri.   80.0205      +0.1380287      -0.9894438
                   Node     3.2485      +0.2693734      -0.0053910
e   1.0            Incl.   51.1767      +0.9530929      +0.1448168
From 71 observations 2005 July 3-Aug. 7.

Ephemeris:
    C/2005 N1 (Juels-Holvorcem)
Date    TT    R. A. (2000) Decl.     Delta      r     Elong.  Phase   m1    m2
2005 08 08    06 59.97   +52 36.0    1.621    1.148    44.7    38.4  13.2
2005 08 13    07 40.70   +52 32.1    1.627    1.135    43.7    38.0  13.1
2005 08 18    08 19.83   +51 40.1    1.642    1.128    42.5    37.4  13.1
2005 08 23    08 55.92   +50 06.9    1.665    1.126    41.4    36.4  13.1
2005 08 28    09 28.20   +48 01.8    1.695    1.130    40.2    35.2  13.2
2005 09 02    09 56.54   +45 34.6    1.731    1.140    39.0    33.8  13.3
2005 09 07    10 21.21   +42 53.9    1.771    1.155    37.9    32.4  13.4
2005 09 12    10 42.67   +40 06.5    1.814    1.176    36.9    30.9  13.5
2005 09 17    11 01.40   +37 17.2    1.859    1.201    36.0    29.4  13.6
2005 09 22    11 17.88   +34 29.7    1.906    1.231    35.3    28.1  13.8
2005 09 27    11 32.49   +31 46.1    1.952    1.265    34.8    26.9  14.0

Brian G. Marsden             (C) Copyright 2005 MPC           M.P.E.C. 2005-P36

Read MPEC 2005-P35 Read MPEC 2005-P37


Our Web policy. Index to the CBAT/MPC/ICQ pages.


Valid HTML 4.01!